Simultaneous Nadir Overpasses (SNOs) Predictions

Prediction of SNOs between GOES-16 and LANDSAT-8 Satellite Orbit:

Table of predicted SNOs for the next 14.0 days since TLE Epoch: 4/18/2025
Index Date Time (GOES-16) GOES-16 Lat,Lon LANDSAT-8 Lat,Lon Distance(km) Time Diff (sec)
1 04/19/2025 15:24:30 0.07, -79.84 -0.23, -78.54 147.82 80
2 04/20/2025 03:48:34 -0.06, -80.08 -0.85, -83.74 416.51 80
3 04/22/2025 03:33:44 -0.06, -81.08 0.02, -80.83 29.26 80
4 04/24/2025 03:21:33 -0.05, -82.09 0.84, -77.91 475.78 80
5 04/24/2025 15:45:29 0.05, -82.37 0.18, -83.08 79.65 80
6 04/26/2025 15:30:37 0.05, -83.38 -0.61, -80.15 367.70 80
7 04/27/2025 03:54:41 -0.05, -83.63 -0.44, -85.34 196.07 80
8 04/29/2025 03:39:50 -0.05, -84.64 0.44, -82.43 251.46 80
9 04/29/2025 16:03:44 0.05, -84.92 0.63, -87.59 303.85 80
10 05/01/2025 15:48:53 0.04, -85.93 -0.22, -84.67 143.89 80
11 05/02/2025 04:12:56 -0.04, -86.18 -0.82, -89.87 419.63 80
